Date String (YYYY-MM-DD hh:mm:ss) UTC,Instrument flags,Ambient pressure (hPa),Sample flow (lpm),Bypass flow (lpm),Sample temperature (°C),Ambient temperature (°C),ASC tube jacket temperature (°C),LED temperature (°C),Box temperature (°C),Sample RH (%),Span deviation,Mass concentration (μg/m³),Mass concentration (μg/m³),Mass concentration (μg/m³)
DateTimeUTC,F1_M11,P_M11,Q1_M11,Q2_M11,T1_M11,T2_M11,T3_M11,T4_M11,T5_M11,U1_M11,ZSPAN_M11,X0_M11,X2_M11,X1_M11
2021-10-11 07:00:00,,0822.0,5.00,0.00,29.6,28.7,00.0,38.8,31.3,09.7,0000.0,0004.14,0002.57,0002.42
2021-10-11 07:01:00,,0821.9,5.00,0.00,29.6,28.7,00.0,38.8,31.3,09.7,0000.0,0004.26,0002.60,0002.41
2021-10-11 07:02:00,,0821.9,5.00,0.00,29.6,28.7,00.0,38.8,31.3,09.7,0000.0,0003.64,0002.59,0002.42
2021-10-11 07:03:00,,0822.2,4.99,0.00,29.6,28.7,00.0,38.8,31.3,09.7,0000.0,0003.29,0002.59,0002.42
2021-10-11 07:04:00,,0822.0,5.00,0.00,29.6,28.7,00.0,38.8,31.3,09.8,0000.0,0003.11,0002.60,0002.43
2021-10-11 07:05:00,,0822.1,5.00,0.00,29.6,28.7,00.0,38.8,31.3,09.8,0000.0,0003.05,0002.58,0002.42
2021-10-11 07:06:00,,0822.0,5.00,0.00,29.6,28.7,00.0,38.8,31.3,09.9,0000.0,0002.98,0002.55,0002.41
2021-10-11 07:07:00,,0822.1,5.01,0.00,29.6,28.7,00.0,38.8,31.3,10.1,0000.0,0003.04,0002.58,0002.42
2021-10-11 07:08:00,,0821.9,4.98,0.00,29.6,28.7,00.0,38.8,31.3,10.1,0000.0,0003.08,0002.59,0002.43
2021-10-11 07:09:00,,0821.9,5.00,0.00,29.6,28.7,00.0,38.8,31.3,10.1,0000.0,0003.23,0002.67,0002.45
2021-10-11 07:10:00,,0822.0,5.01,0.00,29.6,28.7,00.0,38.8,31.3,10.0,0000.0,0003.35,0002.71,0002.46
2021-10-11 07:11:00,,0822.2,5.01,0.00,29.6,28.7,00.0,38.8,31.3,10.0,0000.0,0003.44,0002.75,0002.48
2021-10-11 07:12:00,,0821.8,4.99,0.00,29.6,28.6,00.0,38.8,31.3,10.0,0000.0,0003.46,0002.76,0002.49
2021-10-11 07:13:00,,0821.8,5.00,0.00,29.6,28.6,00.0,38.7,31.3,10.0,0000.0,0003.44,0002.76,0002.50
2021-10-11 07:14:00,,0821.9,5.00,0.00,29.6,28.6,00.0,38.8,31.3,10.0,0000.0,0003.52,0002.80,0002.51
2021-10-11 07:15:00,,0822.0,5.00,0.00,29.6,28.6,00.0,38.7,31.3,09.9,0000.0,0003.68,0002.82,0002.50
2021-10-11 07:16:00,,0821.8,5.00,0.00,29.6,28.6,00.0,38.7,31.3,09.9,0000.0,0004.28,0002.88,0002.52
2021-10-11 07:17:00,,0822.1,4.99,0.00,29.6,28.6,00.0,38.7,31.3,10.0,0000.0,0004.37,0002.91,0002.53
2021-10-11 07:18:00,,0821.8,5.00,0.00,29.6,28.6,00.0,38.8,31.3,09.9,0000.0,0004.39,0002.93,0002.53
2021-10-11 07:19:00,,0821.8,5.00,0.00,29.6,28.6,00.0,38.8,31.3,10.0,0000.0,0004.98,0002.91,0002.53
2021-10-11 07:20:00,,0821.7,5.00,0.00,29.6,28.6,00.0,38.8,31.3,10.0,0000.0,0005.61,0002.87,0002.53
2021-10-11 07:21:00,,0821.8,5.01,0.00,29.6,28.6,00.0,38.8,31.4,10.1,0000.0,0005.69,0002.90,0002.53
2021-10-11 07:22:00,,0821.7,5.00,0.00,29.6,28.6,00.0,38.8,31.4,10.2,0000.0,0005.78,0002.92,0002.51
2021-10-11 07:23:00,,0821.8,4.99,0.00,29.6,28.6,00.0,38.7,31.3,10.3,0000.0,0005.74,0002.93,0002.52
2021-10-11 07:24:00,,0821.8,5.01,0.00,29.6,28.6,00.0,38.7,31.3,10.3,0000.0,0005.77,0002.95,0002.54
2021-10-11 07:25:00,,0821.8,4.99,0.00,29.6,28.6,00.0,38.7,31.3,10.3,0000.0,0006.63,0002.95,0002.55
2021-10-11 07:26:00,,0821.9,5.00,0.00,29.6,28.6,00.0,38.7,31.3,10.3,0000.0,0006.51,0002.94,0002.56
2021-10-11 07:27:00,,0821.9,5.01,0.00,29.5,28.5,00.0,38.7,31.2,10.4,0000.0,0006.00,0002.91,0002.55
2021-10-11 07:28:00,,0821.8,4.99,0.00,29.5,28.6,00.0,38.7,31.2,10.4,0000.0,0005.96,0002.92,0002.56
2021-10-11 07:29:00,,0821.9,5.02,0.00,29.5,28.5,00.0,38.7,31.2,10.3,0000.0,0005.96,0002.92,0002.56
2021-10-11 07:30:00,,0821.8,5.00,0.00,29.5,28.5,00.0,38.7,31.3,10.2,0000.0,0005.33,0002.90,0002.54
2021-10-11 07:31:00,,0821.8,5.01,0.00,29.5,28.5,00.0,38.7,31.3,10.2,0000.0,0004.56,0002.89,0002.51
2021-10-11 07:32:00,,0821.8,5.00,0.00,29.5,28.5,00.0,38.7,31.2,10.2,0000.0,0004.40,0002.81,0002.49
2021-10-11 07:33:00,,0821.8,5.00,0.00,29.5,28.5,00.0,38.7,31.2,10.2,0000.0,0004.16,0002.73,0002.46
2021-10-11 07:34:00,,0821.8,5.00,0.00,29.5,28.5,00.0,38.7,31.2,10.0,0000.0,0004.08,0002.67,0002.43
2021-10-11 07:35:00,,0821.8,5.00,0.00,29.4,28.5,00.0,38.6,31.1,09.9,0000.0,0004.04,0002.63,0002.39
2021-10-11 07:36:00,,0822.0,4.99,0.00,29.4,28.4,00.0,38.6,31.1,10.1,0000.0,0003.23,0002.61,0002.36
2021-10-11 07:37:00,,0822.1,5.00,0.00,29.4,28.5,00.0,38.6,31.1,10.2,0000.0,0003.10,0002.59,0002.35
2021-10-11 07:38:00,,0821.9,4.99,0.00,29.4,28.5,00.0,38.6,31.1,10.2,0000.0,0003.01,0002.55,0002.33
2021-10-11 07:39:00,,0821.9,5.01,0.00,29.4,28.5,00.0,38.6,31.1,10.2,0000.0,0002.98,0002.52,0002.31
2021-10-11 07:40:00,,0822.0,5.00,0.00,29.4,28.5,00.0,38.6,31.1,10.2,0000.0,0002.96,0002.50,0002.31
2021-10-11 07:41:00,,0822.1,4.99,0.00,29.4,28.5,00.0,38.6,31.1,10.2,0000.0,0003.02,0002.52,0002.33
2021-10-11 07:42:00,,0822.0,5.01,0.00,29.4,28.5,00.0,38.6,31.1,10.3,0000.0,0003.10,0002.54,0002.35
2021-10-11 07:43:00,,0822.1,4.99,0.00,29.4,28.5,00.0,38.6,31.1,10.3,0000.0,0003.11,0002.55,0002.36
2021-10-11 07:44:00,,0822.0,4.99,0.00,29.4,28.5,00.0,38.6,31.1,10.2,0000.0,0003.22,0002.59,0002.36
2021-10-11 07:45:00,,0822.0,5.01,0.00,29.4,28.5,00.0,38.6,31.1,10.2,0000.0,0003.28,0002.62,0002.37
2021-10-11 07:46:00,,0822.0,4.99,0.00,29.4,28.5,00.0,38.6,31.2,10.2,0000.0,0003.43,0002.68,0002.39
2021-10-11 07:47:00,,0822.0,4.99,0.00,29.4,28.5,00.0,38.6,31.2,10.1,0000.0,0003.46,0002.70,0002.40
2021-10-11 07:48:00,,0822.0,5.01,0.00,29.4,28.5,00.0,38.6,31.2,10.1,0000.0,0003.51,0002.70,0002.38
2021-10-11 07:49:00,,0822.0,4.99,0.00,29.5,28.5,00.0,38.6,31.2,10.1,0000.0,0003.59,0002.71,0002.38
2021-10-11 07:50:00,,0822.0,5.00,0.00,29.5,28.5,00.0,38.6,31.2,10.1,0000.0,0003.73,0002.75,0002.38
2021-10-11 07:51:00,,0821.9,5.00,0.00,29.5,28.5,00.0,38.6,31.2,10.0,0000.0,0003.71,0002.74,0002.38
2021-10-11 07:52:00,,0822.1,5.00,0.00,29.5,28.5,00.0,38.6,31.2,10.0,0000.0,0003.71,0002.74,0002.36
2021-10-11 07:53:00,,0822.1,5.00,0.00,29.5,28.5,00.0,38.6,31.2,09.9,0000.0,0003.62,0002.71,0002.34
2021-10-11 07:54:00,,0822.2,5.00,0.00,29.5,28.5,00.0,38.6,31.2,09.8,0000.0,0003.63,0002.70,0002.33
2021-10-11 07:55:00,,0822.4,4.99,0.00,29.5,28.5,00.0,38.6,31.2,09.8,0000.0,0003.55,0002.66,0002.32
2021-10-11 07:56:00,,0822.1,5.00,0.00,29.4,28.4,00.0,38.6,31.1,09.8,0000.0,0003.49,0002.63,0002.31
2021-10-11 07:57:00,,0822.1,5.01,0.00,29.4,28.4,00.0,38.6,31.2,09.8,0000.0,0003.48,0002.62,0002.29
2021-10-11 07:58:00,,0822.2,5.00,0.00,29.4,28.4,00.0,38.6,31.1,09.8,0000.0,0003.41,0002.59,0002.27
2021-10-11 07:59:00,,0822.1,5.00,0.00,29.4,28.4,00.0,38.6,31.1,09.8,0000.0,0003.35,0002.58,0002.27
